Theta_e
314 311 312 316 323 324 327 330 331 332 334 335 335 335 337 358 360 362 356 355 351 348 347 348 347 346 344 341 336 333 333 332 330 333 333 333 335 334 332 334 337 338 340 336 324 326 326 332 333
311 315 314 316 324 327 328 329 331 332 337 335 337 336 338 362 357 353 358 358 348 348 347 348 348 346 344 343 340 334 334 333 331 333 333 333 335 333 335 336 337 340 338 328 324 325 327 331 332
307 314 317 316 321 327 328 329 330 333 336 335 336 335 342 360 355 354 358 357 351 348 348 346 347 346 345 345 343 337 336 335 331 333 333 332 334 333 336 337 340 340 336 326 325 325 329 334 335
316 313 318 318 321 325 327 328 329 331 333 335 335 335 341 356 357 358 358 356 349 349 348 346 345 345 345 345 345 342 338 337 332 333 334 332 334 336 340 342 342 340 336 327 325 326 328 332 338
315 312 317 317 319 321 324 327 328 331 334 337 333 337 354 360 356 358 358 357 351 354 352 348 347 346 345 344 345 344 340 340 333 333 335 333 335 336 341 344 345 343 332 323 325 327 329 333 336
312 312 314 316 316 319 323 325 326 325 328 332 331 333 354 357 356 357 357 357 354 357 356 349 348 346 345 344 345 344 342 342 334 334 336 334 336 337 339 342 344 340 328 322 324 327 328 329 331
314 313 314 315 316 318 319 321 324 324 324 331 330 331 356 351 351 352 352 352 357 356 357 349 347 345 344 343 345 345 344 343 336 335 337 336 336 337 338 340 340 332 327 321 322 327 329 329 329
315 312 313 315 316 316 318 320 321 321 325 327 330 330 361 354 350 350 350 350 357 358 355 347 347 349 348 347 346 346 345 343 339 337 340 338 337 337 338 338 334 331 329 324 322 324 327 328 328
314 314 313 314 315 315 316 317 320 323 324 327 327 327 354 353 352 352 350 350 351 356 356 345 346 348 351 353 350 347 346 343 341 340 342 340 338 338 338 338 334 330 330 327 323 321 322 323 324
313 313 314 314 314 315 315 317 317 320 324 324 324 330 349 350 349 341 342 344 341 350 354 348 345 347 351 352 353 348 347 346 344 343 345 342 338 336 336 336 334 331 330 329 326 324 323 321 320
313 314 314 315 316 315 316 317 317 318 319 321 322 323 341 341 346 344 342 340 339 342 351 350 347 345 351 352 348 348 347 347 346 346 344 341 337 338 336 337 336 339 338 331 330 329 329 327 325
311 314 315 315 316 316 315 315 316 317 317 316 318 320 321 333 339 342 343 339 350 349 348 348 348 345 346 347 345 345 346 346 345 344 339 335 335 344 343 344 342 338 336 332 329 328 332 336 336
311 313 315 315 315 315 315 315 316 316 317 317 317 318 317 320 336 340 339 347 350 351 349 347 344 344 347 348 345 341 340 340 339 341 342 342 339 343 345 343 344 342 341 339 333 335 337 338 341
312 313 314 314 315 315 315 315 316 316 317 316 316 316 316 318 320 327 334 349 349 350 350 349 345 340 345 343 347 343 343 341 340 341 344 346 341 345 347 342 344 344 344 343 341 340 340 340 344
312 311 313 315 314 315 315 314 316 315 316 315 315 315 316 316 318 319 327 349 346 348 345 343 346 341 339 342 342 348 348 345 346 347 346 347 345 345 349 346 346 348 349 348 347 343 349 348 347
311 311 311 312 314 314 314 315 314 315 314 315 315 315 316 315 318 320 320 342 346 344 349 346 343 338 337 332 331 347 349 349 348 350 350 349 350 351 350 349 348 345 348 346 344 347 347 347 345
313 313 312 313 313 314 314 314 314 314 314 314 315 315 315 314 315 319 319 339 342 341 337 338 336 335 332 334 336 348 349 348 344 346 347 348 348 347 346 345 338 331 342 341 331 333 338 337 344
313 313 314 314 314 314 313 313 314 314 316 315 315 315 315 315 315 318 319 337 341 344 341 342 340 335 337 343 345 347 340 344 343 340 340 344 343 341 335 342 336 332 340 337 334 330 330 341 338
315 314 316 317 317 316 314 315 315 317 317 317 316 315 315 315 315 319 321 335 346 346 346 343 337 337 336 339 342 339 339 334 336 344 339 334 337 338 333 330 332 334 333 338 335 336 341 337 324
315 314 314 317 319 317 317 317 319 319 318 317 317 318 315 316 316 316 333 336 349 346 344 338 333 335 337 339 335 333 337 333 335 346 344 339 333 333 329 327 332 337 344 337 337 334 329 326 326
314 313 314 316 318 319 320 320 321 322 321 321 320 319 317 315 315 316 335 342 346 349 350 346 345 342 344 338 343 343 342 347 348 344 346 346 342 339 340 341 339 335 333 329 329 327 334 331 330
314 314 316 317 318 320 319 318 321 321 320 321 319 316 317 318 316 316 337 340 348 344 352 354 352 349 348 350 348 347 347 347 346 346 347 347 346 344 338 334 330 330 328 326 326 331 331 335 333
314 316 316 317 319 320 319 317 318 321 322 321 319 318 317 316 316 317 331 339 346 347 350 351 349 350 348 347 345 346 345 344 344 344 337 332 330 330 329 327 328 329 329 328 330 329 328 329 331
314 316 317 317 316 318 319 320 319 322 322 321 320 319 319 319 317 315 331 336 341 340 343 348 347 348 347 347 347 345 338 334 335 333 332 332 331 328 330 329 329 329 329 328 328 327 327 328 328
314 314 320 320 318 319 318 319 318 323 324 323 321 320 319 326 321 324 331 332 342 340 341 340 337 334 336 336 334 333 335 332 330 330 326 325 327 329 324 323 324 325 324 323 322 322 322 321 321
313 317 319 321 321 319 319 319 319 321 322 323 323 320 326 328 329 330 332 340 339 336 335 332 329 328 328 326 325 324 326 324 323 323 323 321 320 320 320 320 320 320 321 321 320 319 318 319 320
317 318 317 320 325 324 321 319 325 324 325 323 325 324 325 328 329 331 337 336 334 333 331 329 328 326 324 323 322 322 322 322 321 320 318 320 321 320 321 319 318 318 318 318 319 319 319 320 320
318 317 319 318 325 327 324 325 329 329 326 327 325 325 331 331 332 333 332 331 330 329 328 326 325 323 322 323 321 321 321 320 320 320 319 319 319 319 318 318 318 318 318 318 319 319 319 319 319
319 320 318 318 322 324 327 335 330 330 325 327 328 328 330 330 330 328 326 325 324 325 324 323 322 321 321 319 319 319 319 318 318 318 318 318 318 318 318 318 318 318 318 318 318 317 317 317 316
323 317 319 324 325 323 324 334 328 328 328 327 327 329 329 327 328 326 324 324 324 324 323 321 322 320 318 317 317 317 317 317 317 317 317 317 317 317 317 317 317 317 317 317 316 316 316 315 315
Wind_Speed
14 11 8 5 2 2 5 9 9 19 9 3 5 5 2 4 5 4 8 36 33 40 34 28 30 29 28 26 24 23 21 20 20 19 18 20 20 20 20 19 17 16 15 14 15 16 16 14 14
11 6 7 3 3 2 6 15 18 18 3 6 5 2 4 13 11 11 13 28 36 38 34 29 29 28 27 25 24 24 22 21 20 19 18 19 20 20 19 17 16 15 14 14 15 15 15 14 13
8 4 2 5 4 8 6 18 17 10 4 7 2 2 3 8 20 17 28 32 36 36 33 30 29 28 28 26 24 24 23 23 22 20 19 20 21 21 20 18 17 15 14 14 14 15 14 13 13
4 1 4 2 9 12 17 23 14 19 12 2 2 3 5 13 9 25 40 32 33 33 32 31 28 27 26 25 25 25 24 23 23 22 19 20 21 21 20 19 16 15 13 13 14 14 14 12 11
6 3 3 5 9 14 16 20 14 16 9 6 1 2 5 10 27 41 39 35 35 33 29 31 29 27 26 24 24 25 25 23 22 20 19 20 20 21 20 19 17 14 12 13 14 14 14 12 11
2 3 1 10 10 14 18 22 21 12 13 5 5 3 3 21 21 24 26 27 25 30 24 29 28 27 26 25 24 23 24 23 23 21 19 19 19 18 17 16 15 14 13 13 14 13 13 12 12
4 3 6 9 11 15 20 18 18 16 8 6 3 4 5 17 27 30 26 21 23 26 22 29 27 26 25 24 24 25 25 24 23 21 19 18 19 19 18 16 14 13 12 12 13 13 12 11 10
4 3 8 10 13 18 16 17 12 12 17 6 4 3 5 5 25 22 20 15 16 26 26 28 24 22 23 25 25 27 26 24 22 21 19 17 17 18 19 18 16 14 13 12 12 12 12 12 11
6 9 11 16 16 10 13 7 8 11 15 4 6 4 12 26 25 23 12 15 17 27 28 34 28 24 21 20 22 23 23 22 21 21 19 18 18 18 18 18 17 16 15 13 13 12 12 11 11
8 8 19 9 11 12 14 12 7 3 7 3 0 6 17 22 27 21 19 26 34 34 38 39 34 26 21 17 20 21 22 22 21 20 19 18 17 18 20 20 17 16 15 14 12 12 11 12 12
7 20 9 13 20 20 20 18 7 6 5 4 6 6 11 10 13 18 23 25 4 8 14 29 34 31 20 15 19 20 20 19 18 18 17 17 17 16 19 19 19 18 16 15 15 14 15 15 15
14 19 16 18 17 13 11 9 10 3 6 8 8 5 5 10 12 14 16 14 17 8 10 25 21 16 12 17 16 19 19 18 20 19 19 19 19 19 19 21 20 20 20 21 19 19 17 16 13
20 15 17 18 19 16 13 8 9 9 8 9 11 9 8 5 10 19 23 23 27 23 30 20 28 15 15 14 18 21 21 22 21 21 19 16 22 21 24 24 24 24 22 21 21 19 19 18 16
7 17 19 13 16 17 9 9 6 6 6 9 10 9 9 4 3 13 11 28 29 34 39 33 36 23 32 3 10 20 25 23 23 23 23 20 22 20 20 21 20 23 24 22 23 23 23 22 19
15 17 15 21 12 11 10 10 16 7 8 9 11 11 9 8 7 3 13 12 33 31 39 40 32 22 13 29 12 18 27 25 25 26 27 26 23 20 17 20 17 17 17 20 18 22 11 7 6
13 17 16 9 11 8 9 20 9 9 10 12 11 9 13 12 6 8 11 9 19 26 33 23 21 30 42 41 24 25 11 19 16 12 28 27 18 10 5 11 1 19 15 22 24 6 9 4 6
8 10 10 11 8 8 13 19 11 11 10 16 16 14 10 10 10 10 14 16 17 23 28 33 35 37 21 12 20 22 11 5 5 7 0 14 15 7 6 7 18 34 26 20 32 33 22 15 13
9 9 14 12 17 16 15 16 17 12 13 15 10 16 11 10 10 13 17 20 23 22 19 20 26 28 21 18 16 15 12 8 7 7 18 18 14 14 5 10 11 27 26 15 10 8 14 11 5
14 15 15 10 17 17 20 19 18 14 9 9 8 9 11 11 9 21 14 22 28 28 24 22 22 31 29 21 17 15 19 16 13 20 12 6 14 14 19 8 10 20 16 9 10 15 16 8 11
19 20 18 14 17 15 16 13 9 9 10 11 12 9 10 7 8 9 20 27 29 33 31 32 29 37 25 20 20 19 24 21 21 17 10 7 5 13 13 13 19 22 9 6 11 10 3 6 7
21 21 16 14 17 16 8 6 6 6 6 8 11 9 8 11 11 9 14 22 30 31 35 35 36 39 33 30 25 21 17 17 20 19 19 14 18 18 15 12 14 11 13 8 4 1 0 6 10
19 20 21 19 15 5 7 4 6 8 11 9 8 9 8 8 9 8 18 18 24 32 36 38 38 35 32 34 34 34 30 20 25 25 20 18 20 20 16 17 14 10 7 3 2 2 3 5 10
19 17 20 19 9 4 8 4 6 6 14 19 10 9 9 10 10 10 20 25 32 32 35 34 33 27 23 23 23 22 15 12 18 18 18 18 18 16 11 8 7 5 4 4 6 10 12 12 14
19 16 15 9 2 4 6 5 7 2 8 10 10 10 10 9 10 11 23 28 27 24 29 25 24 20 19 19 18 14 23 26 27 22 17 10 8 7 7 5 5 4 3 5 9 12 13 15 16
20 11 5 3 6 4 7 5 7 5 2 9 8 9 10 6 8 9 17 14 24 27 32 27 28 23 20 21 22 21 26 26 24 22 20 15 14 11 7 2 2 4 8 12 16 16 18 17 19
15 10 5 6 4 4 7 7 13 9 6 8 2 10 11 13 16 14 13 18 26 27 32 29 27 25 21 21 21 20 19 19 17 15 11 9 5 3 4 5 7 9 11 13 17 19 22 20 19
8 10 9 7 3 3 3 6 3 5 10 8 8 9 9 12 15 17 16 21 24 27 28 26 25 23 19 17 16 15 14 12 10 7 6 4 1 4 6 11 13 13 15 15 16 17 18 17 18
11 7 7 4 6 3 6 3 2 9 10 12 21 7 12 14 17 18 16 20 24 29 31 27 22 19 16 15 15 14 13 11 9 7 5 4 5 7 10 12 14 15 15 16 17 18 19 20 19
8 8 6 6 6 6 3 2 3 2 6 8 10 19 8 12 18 19 16 25 28 30 26 20 16 14 14 12 11 10 9 7 6 7 7 8 10 11 13 13 15 16 16 16 17 19 21 22 22
12 8 7 5 4 3 6 3 3 5 2 10 7 13 21 26 16 18 17 21 23 21 19 15 11 13 14 13 10 9 8 7 8 9 9 11 12 14 16 17 17 18 18 18 20 22 22 23 21
Wind_Direction
285 278 286 282 22 154 257 256 261 283 288 104 61 40 9 32 96 182 127 160 156 159 158 167 162 159 155 154 152 151 150 150 147 145 141 141 139 137 136 136 134 131 129 124 121 121 121 119 113
277 273 240 262 169 252 257 254 260 257 201 93 43 298 19 93 96 126 123 145 157 158 158 166 166 161 159 158 157 157 157 157 155 152 149 148 145 143 142 142 140 137 134 129 130 129 131 128 122
268 215 101 169 201 221 242 256 263 305 26 12 355 298 101 113 131 152 150 156 159 156 161 167 169 166 165 165 164 164 164 163 162 161 158 157 155 153 151 151 149 148 142 138 138 139 140 136 132
236 204 296 202 236 232 231 265 277 283 298 143 256 302 74 125 133 142 151 154 157 159 169 169 173 172 172 172 172 170 170 169 168 166 165 164 164 161 159 159 158 157 153 151 150 150 151 150 148
248 272 221 219 245 260 262 260 271 275 281 257 239 0 72 79 127 137 142 150 157 163 175 174 177 176 177 178 179 176 173 172 173 172 171 170 171 171 169 168 166 166 165 162 162 161 163 166 170
276 170 248 224 248 245 251 262 268 275 291 317 6 336 75 98 95 113 124 135 148 164 177 181 181 179 180 180 181 179 176 175 176 178 177 175 177 180 179 179 177 175 173 172 173 175 175 182 186
223 246 229 253 253 248 246 249 257 263 250 242 247 283 87 59 81 99 116 119 159 171 181 185 184 182 182 180 181 182 181 179 180 182 184 181 181 183 185 186 186 183 183 182 185 186 191 195 202
220 246 258 243 247 262 264 275 258 253 264 220 137 255 147 179 102 92 103 102 121 171 179 189 188 184 182 182 181 181 183 183 183 185 187 188 188 190 191 191 191 191 188 192 197 200 203 208 215
236 237 240 242 246 256 273 270 263 302 238 153 162 219 150 153 129 134 158 133 151 181 187 185 187 186 182 179 178 180 185 188 188 189 191 191 194 196 199 201 199 198 196 200 202 211 216 221 228
202 224 232 250 262 261 272 284 297 327 221 155 98 77 141 155 149 140 151 176 189 190 181 180 182 183 177 168 173 184 187 191 192 192 193 199 204 207 205 205 207 209 213 213 214 218 226 232 236
244 235 242 233 252 263 273 288 285 16 331 175 203 196 155 167 166 174 190 201 344 272 201 167 180 173 164 173 182 185 196 196 198 199 205 211 210 213 214 211 211 216 224 225 226 228 229 237 244
238 239 238 251 259 277 280 308 310 312 246 298 325 345 330 160 174 190 200 132 98 100 142 148 138 126 160 194 196 199 200 199 197 203 210 212 207 213 220 217 217 220 224 228 226 231 233 241 231
235 242 235 236 250 257 269 267 262 283 298 315 321 334 318 353 188 194 182 176 153 147 132 114 120 92 113 161 193 201 207 205 206 206 211 214 208 214 227 218 226 228 229 233 227 230 228 236 232
242 237 246 236 227 248 247 263 268 265 286 299 305 302 298 303 347 308 154 152 164 153 147 159 143 149 146 156 260 213 212 206 208 205 212 211 213 222 216 219 232 238 239 240 232 230 235 243 242
243 253 256 238 234 236 252 267 239 262 269 258 263 280 280 277 297 332 315 128 138 145 149 164 160 199 193 123 210 241 227 206 206 212 211 208 203 213 234 226 234 248 250 243 246 237 202 179 209
235 246 248 254 219 226 184 254 245 224 233 240 241 245 254 268 236 269 308 127 126 146 167 177 190 177 159 154 164 194 243 191 192 197 213 208 207 214 224 240 45 349 357 15 13 350 235 248 240
246 240 246 250 245 209 202 248 237 227 234 231 231 229 226 234 257 237 272 155 142 149 153 165 174 181 168 194 184 220 199 118 34 249 228 222 219 248 2 3 344 331 315 330 17 8 358 19 311
236 223 242 241 229 240 243 236 231 226 234 238 222 215 216 217 218 218 231 155 152 162 161 163 174 180 179 167 204 222 207 208 22 310 276 252 229 248 285 224 269 272 269 255 6 325 320 266 299
251 241 222 231 240 226 234 232 216 217 223 235 245 206 200 209 203 191 194 160 150 156 158 157 161 162 173 182 191 203 202 191 200 239 242 238 215 215 199 156 251 233 252 240 176 190 209 241 326
241 246 254 261 244 217 242 207 199 203 214 215 228 217 198 188 171 186 149 147 150 156 152 159 161 173 193 196 190 193 201 193 210 223 222 195 231 204 209 197 213 225 220 206 180 192 256 325 313
231 242 248 250 267 253 160 205 197 231 238 232 222 191 176 186 181 183 147 156 144 145 156 166 172 176 183 188 185 190 177 195 196 196 197 199 192 199 202 204 217 183 181 190 178 86 76 246 259
233 230 244 255 264 269 130 236 228 232 243 245 203 156 171 174 176 179 152 152 151 155 153 158 168 173 184 194 178 170 178 176 182 192 192 171 200 189 171 163 171 179 186 199 280 282 283 299 295
232 232 229 241 251 213 283 132 257 262 263 223 192 173 183 207 189 172 157 157 160 158 156 154 163 166 173 178 182 174 160 166 161 158 145 140 156 149 154 179 185 204 224 250 277 295 301 298 299
236 234 246 231 177 259 234 144 271 258 232 190 171 173 190 208 192 166 161 153 156 138 145 140 144 141 165 164 164 158 140 139 138 132 136 145 162 141 133 151 157 167 218 268 282 283 283 290 292
221 225 216 216 222 206 205 263 220 238 173 103 183 184 192 118 150 133 130 111 104 101 106 110 107 96 104 112 112 118 124 123 124 125 121 121 115 110 119 125 195 267 283 292 288 293 295 296 300
217 188 147 180 176 213 229 220 234 209 195 116 121 170 123 105 102 95 106 107 107 104 105 104 103 99 99 98 92 100 93 103 107 111 110 105 96 64 343 296 289 295 295 290 294 295 295 300 299
196 202 184 127 26 60 262 245 36 104 44 51 101 107 115 113 108 112 108 105 105 105 106 106 103 99 98 101 101 98 97 103 94 87 87 82 8 308 290 300 305 305 306 307 303 295 299 301 295
188 180 189 199 143 161 265 176 105 356 52 29 25 102 117 113 99 98 95 91 93 103 108 105 101 101 101 95 94 85 84 74 56 41 37 10 328 316 313 313 314 311 309 305 300 302 298 288 289
221 196 188 142 142 174 202 230 210 5 42 62 39 48 31 116 101 98 91 89 90 94 99 103 107 109 106 90 88 75 62 47 27 8 -0 347 331 326 320 312 306 300 300 305 306 300 295 291 290
316 176 229 129 211 208 156 207 353 274 102 71 54 58 39 349 107 104 105 103 100 102 93 90 112 101 90 87 76 70 57 33 3 345 334 325 318 315 315 319 312 311 310 309 305 299 296 289 294